STARLINK-32151, 60299

Orbit data source: Space-Track

STARLINK-32151, 60299 is a payload satellite owned by SpaceX/Seattle (US) in LEO that was launched on Sun, 28 Jul 2024 UTC via an FALCON 9 launch vehicle from the Air Force Eastern Test Range (AFETR). Payload-class satellites include a variety of spacecraft equipped with specific instruments for various scientific and technological missions. These include communications satellites like Starlink; space stations such as the ISS; scientific satellites like the Hubble; Earth observation satellites from companies like Planet Labs, Umbra, and HawkEye 360; GPS; miniature CubeSats for education and research; and military/defense satellites.

Loading next visibility...
Identifier
60299, 2024-132X
Orbit
LEO
Country
Flag of USUS
Related business
Manufacturer
SpaceX/Seattle
Mission
Operational Commercial Communications
Bus & Motor
STARLINK V2M, Unknown motor
Mass
730 kg wet, ~700 kg dry
Launch date (UTC)
2024-07-28 (1 year ago)
Launch vehicle
FALCON 9
Launch site
Air Force Eastern Test Range (AFETR)
Object type
Payload
Rocket body
Debris
Shape & HBR
Box + 2 Pan, 17.7 m
Radar Cross Section
33.884 m², Large (>1 m²)

Expand to show TLE details & history
Last TLE update: 1 day ago

TLE from 1 day ago
0 STARLINK-32151
1 60299U 24132X   25304.21452213 -.00000317  00000-0  14269-5 0  9991
2 60299  53.1605 265.3874 0001177  95.5474 264.5661 15.30188703 72132
Epoch: 2025-10-31T05:08Z
TLE epoch observation values (Epoch: 2025-10-31T05:08:54.712Z)
Latitude
Longitude
148.39727°
Altitude
476.225 km
Speed
7.629 km/s
True Right ascension
17h 41m 32s
True Declination
0° 00' 00"
Sunlit
Object was in daylight at epoch
Visualization orbit readout
Latitude
Unknown
Longitude
Unknown
Altitude
Unknown
Speed
Unknown
Apparent Right ascension
Unknown
Apparent Declination
Unknown
Sunlit
N/A
Visualization observer readout
Local Sidereal Time
06:10:26
Azimuth
Unknown
Elevation
Unknown
Doppler factor
Unknown
Orbital elements
Apogee altitude
476.312 km
Perigee altitude
474.698 km
Semi-major axis
6,853.642 km
Eccentricity
0.00012
Inclination
53.1605°
RAAN
265.3874°
Arg. of periapsis
95.5474°
True anomaly
264.55267°
Mean anomaly
264.5661°
Eccentric anomaly
264.55939°
Mean motion
3.82526 °/min
Orbital period
94.11 mins
BSTAR
0.0000014269
Loading maneuver chart data...
Computing Atmospheric mass density...
Loading historical data...
Loading historical data...
Loading historical data...
Loading historical data...
Loading historical data...
Loading historical data...
Loading historical data...

Documentation

Showing up to 5 results
|